This demonstration page uses our WeatherBlox Daily Observations layout. Learn more.

Hourly Observations for November 17, 2018

Temp ( °F °C ) Dew Point ( °F °C ) Humidity (%) Winds ( mph kmh ) Pressure ( in mb ) Visibility ( mi km ) Precip ( " mm )
12:15 am 00:15 Clear 41 5.1 32 0.2 71 71 N 20 31 30.12 1020 10 16.09344 0 0
12:35 am 00:35 Clear 40 4.5 32 0 73 73 N 25 41 30.12 1020 10 16.09344 0 0
12:55 am 00:55 Clear 38 3.3 32 0 79 79 N 21 33 30.12 1020 10 16.09344 0 0
1:15 am 01:15 Clear 37 2.5 32 -0.1 83 83 N 21 33 30.18 1022 10 16.09344 0 0
1:35 am 01:35 Mostly Cloudy 35 1.9 31 -0.3 86 86 N 16 26 30.18 1022 10 16.09344 0 0
1:55 am 01:55 Mostly Cloudy 34 1.1 30 -1 86 86 N 25 41 30.18 1022 10 16.09344 0 0
2:15 am 02:15 Mostly Cloudy 33 0.4 29 -1.8 85 85 NNE 24 39 30.21 1023 10 16.09344 0 0
2:35 am 02:35 Partly Cloudy 31 -0.3 27 -2.7 84 84 N 25 41 30.24 1024 10 16.09344 0 0
2:55 am 02:55 Mostly Cloudy 30 -1 26 -3.1 86 86 N 30 48 30.24 1024 10 16.09344 0 0
3:15 am 03:15 Cloudy 30 -1.1 26 -3.1 86 86 N 31 50 30.24 1024 10 16.09344 0 0
3:35 am 03:35 Cloudy 29 -1.5 26 -3.2 88 88 N 26 43 30.24 1024 10 16.09344 0 0
3:55 am 03:55 Cloudy 29 -1.7 26 -3.4 88 88 N 23 37 30.27 1025 10 16.09344 0 0
4:15 am 04:15 Cloudy 28 -2 26 -3.3 91 91 N 28 44 30.27 1025 10 16.09344 0 0
4:35 am 04:35 Cloudy 28 -2.1 26 -3.2 92 92 N 31 50 30.33 1027 10 16.09344 0 0
4:55 am 04:55 Cloudy 28 -2.2 26 -3.5 91 91 NNE 25 41 30.33 1027 10 16.09344 0 0
5:15 am 05:15 Cloudy 28 -2.3 26 -3.6 91 91 NNE 26 43 30.33 1027 10 16.09344 0 0
5:35 am 05:35 Cloudy 28 -2.5 26 -3.6 92 92 N 26 43 30.33 1027 10 16.09344 0 0
5:55 am 05:55 Cloudy 27 -2.6 26 -3.5 94 94 N 26 43 30.33 1027 10 16.09344 0 0
6:15 am 06:15 Cloudy 27 -2.7 26 -3.5 94 94 NNE 29 46 30.33 1027 10 16.09344 0 0
6:35 am 06:35 Cloudy 26 -3.1 25 -3.9 94 94 NNE 25 41 30.36 1028 10 16.09344 0 0
6:55 am 06:55 Cloudy 26 -3.3 25 -4 95 95 NNE 25 41 30.36 1028 10 16.09344 0 0
7:15 am 07:15 Cloudy 26 -3.5 25 -4 96 96 NNE 24 39 30.36 1028 10 16.09344 0 0
7:35 am 07:35 Cloudy 26 -3.4 25 -4 96 96 NNE 25 41 30.39 1029 10 16.09344 0 0
7:55 am 07:55 Cloudy 26 -3.5 25 -4.1 96 96 NNE 21 33 30.39 1029 10 16.09344 0 0
8:15 am 08:15 Cloudy 25 -3.8 24 -4.2 97 97 NNE 21 33 30.42 1030 10 16.09344 0 0
8:35 am 08:35 Cloudy 25 -4 24 -4.6 96 96 N 21 33 30.45 1031 10 16.09344 0 0
8:55 am 08:55 Cloudy 25 -4 24 -4.6 96 96 N 29 46 30.45 1031 10 16.09344 0 0
9:15 am 09:15 Cloudy 25 -4 23 -5 93 93 NNE 21 33 30.48 1032 10 16.09344 0 0
9:35 am 09:35 Cloudy 24 -4.3 22 -5.5 91 91 N 21 33 30.48 1032 10 16.09344 0 0
9:55 am 09:55 Cloudy 24 -4.7 21 -6.3 89 89 N 24 39 30.5 1033 10 16.09344 0 0
10:15 am 10:15 Cloudy 24 -4.5 20 -6.5 86 86 NNE 28 44 30.5 1033 10 16.09344 0 0
10:35 am 10:35 Cloudy 24 -4.5 20 -6.9 84 84 NNE 24 39 30.5 1033 10 16.09344 0 0
10:55 am 10:55 Cloudy 24 -4.5 19 -7.2 82 82 NNE 26 43 30.5 1033 10 16.09344 0 0
11:15 am 11:15 Cloudy 24 -4.3 19 -7.4 79 79 NNE 29 46 30.48 1032 10 16.09344 0 0
11:35 am 11:35 Cloudy 25 -4 18 -7.6 76 76 NNE 25 41 30.5 1033 10 16.09344 0 0
11:55 am 11:55 Cloudy 25 -4.1 17 -8.5 72 72 N 23 37 30.5 1033 10 16.09344 0 0
12:15 pm 12:15 Cloudy 24 -4.2 17 -8.5 72 72 N 22 35 30.5 1033 10 16.09344 0 0
12:35 pm 12:35 Cloudy 25 -4.1 17 -8.1 74 74 N 22 35 30.5 1033 10 16.09344 0 0
12:55 pm 12:55 Windy with Snow Likely 24 -4.2 18 -7.9 76 76 N 22 35 30.5 1033 5 8.04672 0 0
1:15 pm 13:15 Windy with Snow Likely 24 -4.7 19 -7.3 82 82 N 22 35 30.5 1033 2 3.218688 0 0
1:35 pm 13:35 Cloudy with Light Snow 23 -5 20 -6.5 89 89 N 18 30 30.5 1033 1.25 2.01168 0 0
1:55 pm 13:55 Windy with Snow Likely 22 -5.3 20 -6.7 90 90 N 20 31 30.5 1033 1.5 2.414016 0 0
2:15 pm 14:15 Cloudy with Light Snow 23 -5 21 -6.1 92 92 N 14 22 30.5 1033 2 3.218688 0 0
2:35 pm 14:35 Cloudy with Light Snow 23 -5.2 21 -6.2 93 93 N 16 26 30.5 1033 1.5 2.414016 0 0
2:55 pm 14:55 Cloudy with Light Snow 22 -5.5 21 -6.2 95 95 N 16 26 30.5 1033 1.25 2.01168 0 0
3:15 pm 15:15 Cloudy with Light Snow 22 -5.6 21 -6.3 95 95 N 17 28 30.5 1033 1.25 2.01168 0 0
3:35 pm 15:35 Cloudy with Light Snow 21 -5.9 20 -6.7 94 94 N 16 26 30.5 1033 1.25 2.01168 0 0
3:55 pm 15:55 Cloudy with Light Snow 21 -6 20 -6.6 96 96 NNE 15 24 30.5 1033 1 1.609344 0 0
4:15 pm 16:15 Cloudy with Light Snow 21 -5.9 20 -6.6 95 95 N 18 30 30.5 1033 1.75 2.816352 0 0
4:35 pm 16:35 Cloudy with Light Snow 21 -6.1 20 -6.8 95 95 N 18 30 30.5 1033 2 3.218688 0 0
4:55 pm 16:55 Cloudy with Light Snow 21 -6.2 19 -7 94 94 N 17 28 30.5 1033 1.5 2.414016 0 0
5:15 pm 17:15 Windy with Snow Likely 20 -6.5 19 -7.3 94 94 N 22 35 30.53 1034 2 3.218688 0 0
5:35 pm 17:35 Cloudy with Light Snow 20 -6.5 19 -7.5 93 93 N 17 28 30.53 1034 5 8.04672 0 0
5:55 pm 17:55 Windy with Snow Likely 20 -6.6 18 -7.6 93 93 N 20 31 30.53 1034 4 6.437376 0 0
6:15 pm 18:15 Cloudy with Light Snow 20 -6.8 18 -7.8 93 93 NNE 17 28 30.56 1035 5 8.04672 0 0
6:35 pm 18:35 Cloudy with Light Snow 20 -6.7 19 -7.5 94 94 N 15 24 30.56 1035 7 11.265408 0 0
6:55 pm 18:55 Cloudy with Light Snow 19 -7 18 -8 93 93 N 17 28 30.56 1035 4 6.437376 0 0
7:15 pm 19:15 Cloudy with Light Snow 19 -7.1 18 -8 93 93 NNE 13 20 30.56 1035 2.5 4.02336 0 0
7:35 pm 19:35 Cloudy with Light Snow 19 -7.2 18 -8 94 94 NNE 13 20 30.56 1035 2.5 4.02336 0 0
7:55 pm 19:55 Cloudy with Light Snow 19 -7.2 18 -8 94 94 NNE 13 20 30.56 1035 5 8.04672 0 0
8:15 pm 20:15 Cloudy with Light Snow 19 -7.1 18 -7.8 95 95 N 10 17 30.56 1035 4 6.437376 0 0
8:35 pm 20:35 Cloudy 19 -7 18 -7.9 93 93 N 13 20 30.56 1035 7 11.265408 0 0
8:55 pm 20:55 Cloudy 19 -7.2 17 -8.5 91 91 N 15 24 30.56 1035 7 11.265408 0 0
9:15 pm 21:15 Cloudy 19 -7.3 17 -8.3 93 93 N 9 15 30.59 1036 10 16.09344 0 0
9:35 pm 21:35 Cloudy with Light Snow 19 -7.3 17 -8.3 93 93 N 12 19 30.59 1036 7 11.265408 0 0
9:55 pm 21:55 Cloudy 19 -7.3 17 -8.3 93 93 N 12 19 30.59 1036 7 11.265408 0 0
10:15 pm 22:15 Cloudy with Light Snow 19 -7.2 17 -8.3 92 92 N 10 17 30.59 1036 7 11.265408 0 0
10:35 pm 22:35 Cloudy 19 -7.2 17 -8.5 91 91 N 10 17 30.56 1035 7 11.265408 0 0
10:55 pm 22:55 Cloudy with Light Snow 19 -7.2 17 -8.5 91 91 N 9 15 30.59 1036 5 8.04672 0 0
11:15 pm 23:15 Cloudy 19 -7.1 16 -8.7 89 89 N 9 15 30.56 1035 10 16.09344 0 0
11:35 pm 23:35 Cloudy 19 -7.1 15 -9.2 85 85 N 10 17 30.56 1035 10 16.09344 0 0
11:55 pm 23:55 Cloudy 19 -7.4 15 -9.5 85 85 N 10 17 30.56 1035 10 16.09344 0 0

Powered by AerisWeather